RH
14 15 15 16 16 16 17 19 19 19 19 19 18 17 17 17 17 18 18 19 19 18 18 18 20 22 24 26 28 30 32 33 34 36 40 42 40 40 39 38 37 38 38 36 34 35 35 36 39 41 40 38 38 39 40 42 45 46 47 46 43 42 42 41 40 41 42 40 38 37 36 35 36 37 38 38 45 55 54 47 42 44 51 56 60
15 15 15 15 15 15 16 18 18 18 17 18 19 19 19 17 17 18 20 21 22 21 21 20 22 25 27 28 29 29 30 31 32 34 37 40 40 39 38 37 37 38 38 36 35 36 36 37 38 41 42 40 39 40 41 42 45 46 46 46 44 42 42 42 42 42 42 39 37 35 34 34 35 36 37 40 48 54 51 44 42 44 48 49 52
16 16 15 16 16 16 17 17 17 17 17 17 18 18 18 17 16 16 17 19 21 23 23 23 23 24 26 27 27 27 28 28 29 32 35 38 39 39 38 38 38 38 37 35 35 37 37 37 38 41 44 42 40 41 41 42 44 44 46 47 45 43 43 43 43 41 39 37 36 34 32 33 34 35 37 40 42 43 42 42 45 48 50 49 51
17 16 16 16 17 17 17 17 16 16 16 16 16 16 16 16 17 16 16 17 18 21 22 23 23 23 23 24 23 24 26 26 27 30 33 35 36 37 37 38 38 36 35 35 36 37 37 38 40 42 45 44 41 40 41 41 43 43 46 47 47 47 45 42 41 39 37 35 34 33 32 33 34 36 37 38 39 40 41 43 47 51 52 52 51
19 18 18 17 17 17 17 16 16 15 16 16 16 17 17 17 18 18 19 19 19 19 19 20 20 20 20 21 20 21 22 23 24 26 28 30 33 34 35 36 36 34 34 35 36 37 38 39 41 43 46 45 42 41 41 41 43 45 46 48 51 52 47 41 39 37 35 33 32 32 33 34 34 36 38 39 39 41 41 43 49 53 53 52 51
23 21 20 19 19 18 18 17 17 16 17 17 17 18 18 18 19 19 20 20 20 20 19 18 18 17 17 17 18 17 17 19 20 21 23 25 28 31 32 33 33 34 34 35 35 37 39 40 42 44 46 46 43 42 41 42 44 45 47 49 52 52 48 44 40 36 33 32 32 33 33 34 35 37 38 39 40 41 42 45 50 53 54 54 52
28 25 23 22 21 20 20 19 18 18 18 18 18 19 19 19 19 20 20 21 21 21 20 19 18 17 17 16 16 15 15 16 16 18 19 21 23 27 30 32 33 35 35 35 36 37 39 41 43 45 46 46 45 43 43 43 44 46 48 50 51 49 47 45 40 35 32 32 32 33 34 34 36 37 38 39 40 41 44 48 51 54 55 54 51
33 31 29 26 25 24 23 22 21 20 20 19 20 20 19 19 19 19 20 21 21 21 20 19 18 17 16 16 16 16 16 15 15 15 17 19 22 25 29 33 36 36 37 36 37 37 38 40 43 45 47 47 46 44 43 43 46 49 50 49 48 48 46 44 41 36 33 32 33 34 35 35 36 37 39 39 41 43 48 51 53 53 53 50 47
35 36 35 33 30 28 27 26 24 23 22 21 20 20 19 19 18 18 19 20 21 21 20 19 18 17 16 16 16 16 16 16 16 16 16 18 20 23 27 32 35 37 38 38 38 38 39 40 42 45 47 48 46 45 44 46 50 52 51 48 48 48 46 44 43 39 34 33 35 35 36 37 37 39 40 39 41 46 50 52 51 51 50 48 45
38 39 40 39 37 35 33 32 30 29 28 27 26 24 23 22 21 21 21 22 22 22 21 20 19 18 17 16 16 16 15 16 17 17 17 17 18 21 24 28 32 36 38 39 39 38 38 39 41 44 47 47 47 47 48 50 51 49 47 46 47 47 44 42 43 41 36 34 35 36 37 38 38 39 40 41 44 48 50 50 50 50 48 46 44
42 43 44 44 44 42 41 40 38 37 36 35 33 32 31 29 29 29 29 29 29 27 26 25 24 23 22 19 18 17 16 17 17 19 19 19 19 21 25 28 32 36 39 40 40 39 39 39 39 42 45 47 48 50 50 50 49 47 45 45 45 45 43 42 43 43 39 37 37 37 37 39 40 40 42 44 47 49 49 49 49 48 46 45 44
45 46 47 47 46 45 44 43 41 40 38 37 36 36 36 36 36 37 37 37 37 36 35 34 33 31 29 26 24 23 22 22 22 23 24 23 22 23 26 31 36 39 40 42 42 41 41 40 40 41 43 45 47 49 50 48 47 48 47 45 44 44 43 43 43 42 40 39 40 39 38 39 40 41 43 47 49 49 48 48 48 47 45 45 46
44 44 45 45 45 45 45 44 43 42 41 40 39 39 39 39 40 41 41 42 42 41 40 40 39 39 36 33 31 29 28 28 28 29 29 28 27 27 28 32 37 40 42 43 44 44 43 42 42 42 43 45 47 46 46 47 48 47 46 45 44 44 45 45 43 41 41 42 43 41 39 40 40 41 45 48 49 47 47 46 46 46 46 47 47
42 41 42 42 42 42 42 42 42 42 42 41 40 40 40 40 41 43 43 43 43 43 43 43 43 43 41 39 36 34 33 34 34 34 34 33 33 32 32 35 40 43 46 47 47 47 47 46 45 43 43 45 46 45 45 49 50 47 46 46 46 46 46 45 43 41 41 42 43 43 41 41 42 44 47 48 47 46 46 45 46 46 46 47 48
42 42 42 41 40 38 37 38 38 40 42 42 42 42 41 41 41 42 42 42 43 43 44 45 45 45 43 40 38 36 36 37 37 37 37 37 37 37 36 38 42 45 48 51 52 52 51 49 47 46 44 44 48 50 50 50 51 49 47 48 48 48 46 45 43 42 41 41 42 44 45 45 45 46 48 48 47 46 46 45 46 47 47 47 49
42 43 43 42 40 38 37 37 37 38 40 42 43 42 42 41 40 40 40 40 41 42 44 45 46 46 44 41 38 35 35 38 38 38 38 38 38 38 38 37 39 40 42 46 50 51 52 52 51 49 47 49 53 53 51 50 52 51 50 50 50 49 47 45 44 43 42 43 45 47 48 49 48 48 48 48 49 47 45 45 46 47 47 48 50
39 40 41 41 41 40 39 39 39 39 39 40 42 43 43 42 42 41 40 40 40 41 42 43 44 45 44 42 39 36 35 37 39 39 39 40 39 39 38 37 37 36 36 38 40 42 46 49 51 51 50 52 53 51 49 51 54 53 52 52 52 50 47 46 46 44 44 46 48 50 51 52 51 50 48 49 49 47 47 47 47 48 48 49 50
35 36 37 38 38 38 39 39 39 39 39 39 41 42 43 43 44 43 42 41 41 41 41 41 41 42 43 43 41 38 36 37 41 42 42 43 42 41 40 38 36 35 34 34 34 36 40 44 49 52 52 50 50 51 52 55 55 53 52 53 52 49 48 48 48 46 46 47 49 51 52 53 53 52 50 49 48 47 47 48 48 48 48 49 50
33 34 35 37 38 38 39 39 38 38 38 37 38 39 41 42 43 43 42 42 42 42 42 41 40 40 41 42 42 41 39 40 43 45 45 45 44 43 42 40 38 36 34 33 33 33 37 41 45 50 50 47 48 52 55 57 56 53 53 53 52 51 51 50 49 46 45 47 49 51 52 53 54 54 52 49 48 47 47 47 47 48 48 49 51
37 37 38 39 40 40 40 40 39 39 38 37 36 36 37 38 39 39 39 38 37 37 38 38 39 40 41 42 42 42 43 44 46 48 47 46 46 45 44 42 41 40 37 34 33 33 35 37 39 42 46 47 50 54 56 57 57 56 55 54 52 53 54 52 49 46 46 48 50 51 53 54 55 55 53 51 48 47 47 47 48 49 49 50 51
38 39 40 40 41 40 40 40 39 39 39 38 36 35 36 37 37 38 37 36 34 33 32 32 33 35 38 41 43 44 44 46 48 50 50 50 49 48 45 43 43 43 40 36 33 33 34 36 37 42 49 53 54 55 56 57 57 57 57 55 52 53 55 53 51 49 49 49 49 50 53 55 56 56 55 53 50 49 49 48 49 50 50 50 50
31 34 37 39 39 38 37 36 36 35 35 35 35 34 34 35 36 37 38 38 37 36 34 33 32 31 32 34 38 42 44 45 46 48 50 51 51 50 48 46 45 46 45 41 37 34 34 36 39 45 52 55 56 56 57 58 57 56 56 56 54 55 56 55 54 54 52 50 50 51 53 55 57 58 56 54 52 51 50 50 50 51 51 50 50
27 29 31 33 33 32 31 31 31 31 30 31 31 31 31 33 34 36 38 39 39 38 36 36 35 34 32 31 32 36 40 42 44 46 47 49 50 51 51 50 49 48 47 45 43 40 38 38 39 44 51 54 54 55 56 56 56 56 57 57 56 56 56 56 56 56 55 53 52 51 53 54 57 59 58 55 54 53 52 51 51 51 52 51 47
25 24 25 25 26 27 28 29 30 32 32 33 33 32 32 33 33 35 37 38 38 37 36 36 35 35 34 33 31 32 34 37 39 41 44 47 49 50 52 53 52 51 48 47 46 45 44 44 44 48 55 58 56 55 56 56 56 57 57 57 57 56 57 58 58 58 58 56 55 53 53 55 58 60 59 57 57 56 54 52 51 52 52 47 40
20 20 21 21 22 25 28 31 34 36 36 35 35 35 36 36 35 35 37 37 37 37 36 36 35 34 34 34 33 32 33 34 36 38 41 45 48 51 53 54 54 53 51 48 48 49 49 49 49 53 60 63 61 59 58 57 57 58 57 56 56 56 57 59 60 61 60 59 58 57 56 56 59 62 60 59 59 58 55 53 52 53 49 41 34
22 23 24 25 27 29 32 33 34 33 32 33 33 34 34 34 33 32 32 34 35 34 33 33 32 32 32 32 32 32 32 34 37 39 41 43 47 52 55 54 53 54 53 52 51 51 52 54 55 60 66 68 66 64 61 59 58 58 57 57 58 57 58 59 61 63 63 61 61 60 59 59 61 62 60 60 60 59 56 52 52 50 45 38 34
37 34 32 30 31 33 35 34 33 32 31 32 32 32 32 31 29 27 26 28 29 29 29 30 29 28 29 29 29 30 31 33 37 42 44 45 47 52 54 55 55 56 55 55 56 56 57 58 61 67 72 72 70 68 67 64 63 61 59 58 58 58 59 60 62 64 65 64 63 63 62 61 62 61 60 61 62 60 56 52 50 47 42 37 36
53 50 47 44 41 39 37 35 35 34 33 33 32 32 31 31 29 27 26 27 28 28 28 27 26 26 26 27 27 28 29 31 34 38 43 47 51 55 57 58 59 59 59 60 62 62 61 62 65 69 71 71 72 71 70 70 69 67 64 61 60 60 61 62 64 66 67 67 66 65 64 64 63 61 61 62 63 60 55 50 47 44 40 38 38
55 54 54 55 54 52 48 43 40 37 35 34 34 34 34 34 34 32 30 31 30 29 28 26 25 25 25 25 25 26 26 28 30 33 38 44 52 58 60 62 62 61 62 65 68 67 65 64 65 66 67 71 75 74 72 72 71 70 69 67 64 63 64 65 67 68 70 70 68 67 66 66 64 61 61 63 63 59 54 49 45 42 40 40 40
47 47 47 48 51 53 53 52 50 46 42 38 37 36 35 36 36 34 32 32 33 32 31 29 28 28 27 25 25 24 24 24 26 29 34 40 49 55 61 65 67 65 65 68 71 71 70 69 69 69 69 73 77 77 76 75 73 71 70 69 67 66 67 68 70 71 71 71 69 68 67 67 65 63 63 64 62 58 53 48 44 41 41 42 42
36 37 39 41 42 44 46 47 48 49 46 43 41 39 35 33 32 31 30 30 30 31 31 30 30 30 31 30 30 29 28 26 26 27 31 37 47 54 59 64 69 69 69 70 71 71 73 75 77 75 74 76 78 79 79 79 76 74 72 70 68 67 68 71 74 74 73 72 70 69 69 68 66 65 66 65 61 57 53 49 45 42 42 43 44
27 27 30 32 34 37 38 38 39 40 39 38 37 35 32 29 26 25 25 25 25 26 27 27 28 29 30 31 31 31 31 31 31 32 32 35 44 53 57 60 65 70 73 73 71 71 74 78 80 80 79 78 76 78 81 82 81 79 76 74 71 69 70 74 76 75 74 73 71 71 70 69 68 68 67 64 59 56 54 50 46 44 44 46 47
23 22 23 25 28 31 33 34 34 33 33 32 31 29 28 26 23 20 18 16 16 17 18 19 21 22 23 24 25 26 27 27 29 31 33 35 40 48 54 57 61 66 71 72 72 74 76 78 81 83 84 82 78 79 82 85 85 83 80 78 75 73 73 77 78 76 75 74 72 72 71 71 71 70 67 63 60 58 55 51 46 45 46 48 49
23 22 21 21 23 26 29 31 31 31 30 30 29 28 27 25 23 20 17 14 12 11 11 11 13 15 15 17 17 18 20 20 21 23 27 30 33 39 46 52 57 63 67 68 69 72 76 77 78 80 84 85 84 84 85 86 87 86 84 81 79 76 76 77 78 77 77 75 74 73 73 72 72 71 68 65 62 58 54 49 47 47 49 50 52
25 24 23 23 23 23 24 28 30 30 30 29 28 27 26 24 22 20 18 16 15 13 11 10 11 12 13 14 14 14 15 15 16 17 20 23 27 31 37 42 48 56 63 65 66 69 73 77 79 81 84 87 87 87 87 87 88 89 87 84 81 78 76 77 79 79 78 76 75 75 74 74 73 71 69 68 66 61 55 50 49 50 51 53 55
28 27 26 26 27 25 23 24 26 27 28 28 28 27 25 23 22 20 18 17 17 16 14 12 12 13 14 14 14 14 13 13 14 15 17 20 24 28 31 33 38 46 54 60 64 66 69 75 81 84 87 88 89 89 89 89 90 91 90 85 81 79 77 78 80 80 79 78 77 76 76 76 74 72 71 69 65 61 56 53 52 53 54 55 57
31 30 29 29 30 28 24 22 21 23 24 25 25 25 24 22 21 20 19 18 18 17 16 15 14 15 15 15 15 15 14 14 14 14 15 18 23 26 26 27 31 37 42 49 57 62 65 70 77 83 87 89 91 92 92 91 92 93 91 87 82 80 79 80 80 81 80 79 79 79 77 76 75 74 72 68 62 57 54 53 54 55 56 58 60
33 32 31 32 32 30 27 24 20 20 21 22 23 23 23 22 21 21 20 19 19 19 18 17 17 17 16 16 17 16 15 15 15 14 15 18 21 24 25 26 27 30 34 41 49 56 60 65 70 78 84 88 90 92 94 94 94 93 92 89 85 82 81 81 81 81 81 80 81 81 80 78 78 76 72 65 60 56 54 54 55 56 58 61 63
34 33 33 35 35 33 31 28 24 21 21 21 22 23 23 22 22 22 22 21 20 19 19 18 18 18 18 18 19 18 17 17 16 15 16 18 21 24 27 28 28 28 31 37 44 49 55 60 64 71 80 86 89 91 93 94 93 91 90 90 88 85 83 82 83 83 82 82 83 84 83 82 81 76 69 63 58 55 54 55 56 58 60 62 65
35 34 35 37 38 37 35 32 29 26 24 24 24 25 24 24 24 24 24 23 23 21 21 20 19 19 20 20 21 21 20 19 18 17 17 19 22 25 28 30 30 29 31 38 42 45 51 58 62 65 73 81 87 89 90 91 91 89 89 90 89 87 84 84 85 85 84 85 87 87 86 86 82 73 66 62 59 56 56 56 58 60 63 65 67
36 36 36 38 40 40 39 37 35 33 31 29 28 28 27 26 26 25 25 25 24 23 23 22 21 20 22 23 23 23 22 21 20 20 20 21 24 28 29 31 31 30 32 38 43 43 48 58 65 66 68 75 82 86 88 90 90 90 90 90 89 88 86 85 86 87 87 87 90 92 91 89 83 73 66 63 61 58 57 58 60 62 65 68 70
37 37 36 37 39 41 41 40 39 39 38 36 34 33 31 29 28 27 27 26 26 26 25 24 23 23 24 25 26 26 25 23 23 23 23 23 27 29 31 32 33 31 31 38 44 45 48 57 67 70 69 72 78 83 86 87 88 90 92 92 90 88 88 87 88 89 89 90 92 95 95 92 84 75 68 65 62 60 60 61 63 65 68 71 74
38 37 37 37 38 39 40 40 40 40 41 40 40 38 37 35 34 32 31 30 29 29 28 27 26 27 28 29 29 29 28 26 26 25 25 27 29 32 33 34 35 34 33 38 45 47 48 55 65 71 71 73 76 81 84 86 86 87 90 93 93 91 89 89 89 91 91 92 94 96 96 92 84 75 70 66 64 62 62 63 66 68 71 74 78
37 36 36 36 36 36 37 37 37 38 38 39 39 40 40 40 39 37 36 35 34 33 33 32 32 32 33 33 33 33 31 30 29 29 29 30 32 34 34 35 37 37 36 39 45 49 49 52 61 69 72 73 76 80 83 86 86 85 86 90 93 94 91 90 90 92 93 95 96 97 95 90 82 74 70 68 67 65 64 66 69 72 75 77 79
33 33 33 33 33 34 34 34 34 35 35 35 36 36 37 38 38 38 39 39 38 38 38 37 36 36 36 35 35 34 34 33 32 32 33 34 35 36 36 37 39 40 40 41 46 51 52 53 60 69 73 73 77 83 87 87 87 85 84 87 93 95 94 93 94 95 97 98 98 98 96 90 81 74 71 70 69 68 68 71 74 75 77 79 81
31 31 31 32 32 32 32 32 32 33 33 33 34 33 34 35 35 36 37 38 38 39 39 38 38 38 37 36 36 36 35 34 34 34 36 37 38 38 38 39 42 46 46 46 48 51 52 52 56 66 73 75 77 83 89 90 88 87 88 90 92 94 95 97 99 99 100 100 99 98 96 89 81 76 74 73 73 73 74 75 77 77 79 81 83
29 29 30 30 30 31 31 32 33 34 35 35 35 35 34 34 34 34 35 35 36 37 37 37 37 37 36 36 37 37 36 36 36 37 38 39 39 39 39 41 46 51 53 54 54 54 54 52 53 61 73 78 78 81 89 93 92 90 90 92 93 94 96 99 101 100 100 100 100 98 94 86 79 77 77 78 77 78 78 78 78 79 81 84 86
33 33 33 33 33 34 35 36 38 40 41 41 41 41 39 38 37 37 36 36 35 35 35 35 35 36 37 38 39 40 40 40 40 41 41 41 40 40 41 45 51 55 59 62 62 60 59 58 57 63 74 81 79 79 87 94 96 94 92 93 95 98 99 100 100 100 100 100 98 94 88 83 80 81 82 82 81 79 79 80 81 83 86 88 89
41 40 40 39 40 41 42 43 45 46 46 46 46 45 45 45 43 41 39 38 36 35 35 36 37 39 41 42 44 45 45 44 44 45 45 44 44 44 45 48 53 60 68 73 72 67 64 62 60 66 78 86 84 81 85 93 98 99 97 96 96 99 101 100 100 100 98 96 92 88 84 83 84 85 85 83 82 81 82 84 86 88 90 90 90
47 47 46 46 46 47 48 49 50 49 49 49 49 48 48 48 47 46 44 43 42 41 42 43 45 47 48 49 49 49 49 48 48 49 49 48 48 49 52 55 59 67 76 82 80 74 70 66 64 68 80 91 93 90 91 94 96 97 97 96 97 99 101 100 98 97 93 90 88 87 86 86 86 85 84 84 84 85 87 89 91 92 92 91 90
56 56 56 56 55 56 57 57 57 56 55 55 54 54 54 53 53 53 53 52 52 52 52 53 54 55 55 54 53 52 52 52 53 52 51 51 52 55 59 63 67 73 80 85 85 81 76 74 74 76 82 88 91 91 94 98 98 95 93 94 96 99 99 97 95 93 92 90 90 90 89 87 86 86 86 88 89 90 92 93 93 93 92 91 90